• Processing (Info)

  • MPEC 2014-Q15 : 2014 QD3

    The following Minor Planet Electronic Circular may be linked-to from your own Web pages, but must not otherwise be redistributed electronically.

    A form allowing access to any MPEC is at the bottom of this page.


    Read MPEC 2014-Q14 Read MPEC 2014-Q16


    M.P.E.C. 2014-Q15                                Issued 2014 Aug. 21, 01:02 UT
    
         The Minor Planet Electronic Circulars contain information on unusual
             minor planets and routine data on comets.  They are published
       on behalf of Commission 20 of the International Astronomical Union by the
              Minor Planet Center, Smithsonian Astrophysical Observatory,
                              Cambridge, MA 02138, U.S.A.
    
                 Prepared using the Tamkin Foundation Computer Network
    
                                  MPC@CFA.HARVARD.EDU
                URL https://www.minorplanetcenter.net/    ISSN 1523-6714
    
                                       2014 QD3
    
    Observations:
         K14Q03D* C2014 08 19.40922 21 33 55.207+04 57 13.53         21.5 wLEQ015F51
         K14Q03D  C2014 08 19.42168 21 33 54.714+04 58 48.45         21.2 wLEQ015F51
         K14Q03D  C2014 08 19.43416 21 33 54.214+05 00 23.42         21.1 wLEQ015F51
         K14Q03D  C2014 08 19.44664 21 33 53.729+05 01 58.80         21.3 wLEQ015F51
         K14Q03D KC2014 08 20.28995 21 33 58.62 +06 54 25.1          19.3 RoEQ015291
         K14Q03D KC2014 08 20.29092 21 33 58.59 +06 54 33.3          19.4 RoEQ015291
         K14Q03D KC2014 08 20.29191 21 33 58.53 +06 54 41.5          19.5 RoEQ015291
         K14Q03D KC2014 08 21.00446 21 34 01.59 +08 38 18.3                qEQ015J95
         K14Q03D KC2014 08 21.01468 21 34 01.32 +08 39 51.9                qEQ015J95
         K14Q03D KC2014 08 21.02555 21 34 01.09 +08 41 31.5          20.4 RqEQ015J95
    
    Observer details:
    291 LPL/Spacewatch II.  Observer R. A. Mastaler.  1.8-m f/2.7 reflector + CCD.
    F51 Pan-STARRS 1, Haleakala.  Observers N. Primak, A. Schultz, T. Goggia,
        M. Willman.  Measurers B. Bolin, K. Chambers, S. Chastel, L. Denneau,
        H. Flewelling, M. Huber, E. Magnier, E. Schunova, R. Wainscoat, C. Waters.
        1.8-m Ritchey-Chretien + CCD.
    J95 Great Shefford.  Observer P. Birtwhistle.  0.40-m f/6.0 Schmidt-Cassegrain
        + CCD.
    
    Orbital elements:
    2014 QD3                                                 Earth MOID = 0.0414 AU
    Epoch 2014 Dec. 9.0 TT = JDT 2457000.5                  MPC
    M  29.81954              (2000.0)            P               Q
    n   0.51314444     Peri.   81.47485     +0.86790916     -0.49323351
    a   1.5451701      Node   308.05703     +0.42131032     +0.79364870
    e   0.4077649      Incl.    4.28074     +0.26311843     +0.35614946
    P   1.92           H   25.5           G   0.15           U   8
    Residuals in seconds of arc
    140819 F51  0.0   0.2+    140820 291  0.2+  0.0     140821 J95  0.3-  0.0
    140819 F51  0.0   0.1+    140820 291  0.3+  0.1+    140821 J95  0.4+  0.2+
    140819 F51  0.1-  0.2-    140820 291  0.0   0.1-
    140819 F51  0.0   0.1-    140821 J95  0.2-  0.2-
    
    Ephemeris:
    2014 QD3                 a,e,i = 1.55, 0.41, 4                   q = 0.9151
    Date    TT    R. A. (2000) Decl.     Delta      r     Elong.  Phase     V
    2014 07 22    21 30 21.6 -16 47 35   0.2545  1.2573   159.3    16.6    23.9
    ...
    2014 08 06    21 33 23.2 -10 46 13   0.1534  1.1659   170.5     8.3    22.3
    ...
    2014 08 14    21 33 43.1 -03 44 58   0.1077  1.1190   169.2     9.7    21.5
    ...
    2014 08 20    21 33 57.0 +06 15 08   0.07749 1.0852   160.4    18.2    21.1
    2014 08 21    21 34 02.1 +08 38 52   0.07293 1.0798   158.1    20.4    21.0
    2014 08 22    21 34 08.8 +11 20 26   0.06854 1.0743   155.6    22.9    20.9
    ...
    2014 08 28    21 36 08.3 +36 21 48   0.04770 1.0430   132.3    45.7    20.7
    ...
    2014 09 05    01 06 39.9 +88 20 11   0.04735 1.0048    84.4    92.9    22.2
    ...
    2014 09 20    09 29 10.8 +48 34 05   0.1072  0.9485    55.9   118.7    25.3
    
    A. U. Tomatic                (C) Copyright 2014 MPC           M.P.E.C. 2014-Q15
    

    Read MPEC 2014-Q14 Read MPEC 2014-Q16


    MPEC number:

    Enter an MPEC number in one of the following forms:

    • 1997-B01 (the full form)
    • J97B01 (the packed version of the full form)
    • B01 (the abbreviated form)